Location: Birkenwerder
(52.6919°N, 13.2774°E)
Time: 23:42:31
(UTC+00:00)

Cosmos 1570 Rocket - Pass Details

Date: 07 October 2020
Orbit: 763 x 788 km, 74.1° (Epoch: 24 October)

Event Time Altitude Azimuth Distance (km) Brightness Sun altitude
Exits shadow 02:15:23 37° 333° (NNW) 1,208 5.0 -27.7°
Drops below altitude 10° 02:19:28 10° 16° (NNE) 2,364 7.1 -27.1°
Sets 02:22:00 0° 24° (NNE) 3,296 8.0 -26.8°
